Retour au catalogue

STARLINK-5273

ActifCommunicationsVLEO
NORAD 54162·PAYLOAD·🇺🇸 United States

Lancé Oct 28, 2022 depuis Vandenberg Space Force Base

Loading…

Prochains Passages (prochaines 24 heures)

TLE

FraisSource: CelesTrak SupGP

Époque: Sep 14, 2026, 21:42 UTC

1 54162C 22141F   26257.90465278  .00722210  00000+0  27528-1 0  2576
2 54162  53.1609 243.3585 0001372  88.4488 231.6373 15.25805319    12

Suivez STARLINK-5273 en temps réel avec AllMySat

Download on the App Store